Tracking 31027 objects as of 19-Jul-2025
HD Live streaming from Space Station
objects crossing your sky now

COSMOS 1867 COOLANT

Track COSMOS 1867 COOLANT now!
10-day predictions


NORAD ID: 39643
Int'l Code: 1987-060L
Perigee: 773.8 km
Apogee: 795.2 km
Inclination: 65.0 °
Period: 100.4 minutes
Semi major axis: 7155 km
RCS: Unknown
Launch date: July 10, 1987
Source: Commonwealth of Independent States (former USSR) (CIS)
Launch site: TYURATAM MISSILE AND SPACE COMPLEX (TTMTR)

Note: This is SATELLITE DEBRIS
Your satellite tracking list
THORAD DELTA 1 DEB
Track 1 satellite(s)




NASA's NSSDC Master Catalog

Two Line Element Set (TLE):
1 39643U 87060L   25197.38130832  .00000138  00000-0  84622-4 0  9996
2 39643  65.0086 227.7765 0014976 263.9267  96.0112 14.34317801589609
Source of the keplerian elements: AFSPC